Weather History for Manassas, VA

Change the Weather History Date:

Sunday, February 10, 2013

  Actual Average Record
Temperature  
Mean Temperature 30 °F -  
Max Temperature 44 °F 44 °F 62 °F (2001)
Min Temperature 15 °F 24 °F 10 °F (2007)
Degree Days  
Heating Degree Days 36    
Moisture  
Dew Point 21 °F    
Average Humidity 77    
Maximum Humidity 100    
Minimum Humidity 31    
Precipitation  
Precipitation 0.00 in - - ()
Sea Level Pressure  
Sea Level Pressure 30.39 in    
Wind  
Wind Speed 2 mph (SSE)    
Max Wind Speed 13 mph    
Max Gust Speed -    
Visibility 10 miles    
Events      
Averages and records for this station are not official NWS values.
T = Trace of Precipitation, MM = Missing Value Source: NWS Daily Summary

Daily Weather History Graph

Daily Weather History Graph

Search for Another Location

Airport:

Trip Planner

Search our weather history database for the weather conditions in past years. The results will help you decide how hot, cold, wet, or windy it might be!

Date:

Astronomy

Feb. 10, 2013 Rise Set
Actual Time 7:06 AM EST 5:42 PM EST
Civil Twilight 6:39 AM EST 6:09 PM EST
Nautical Twilight 6:07 AM EST 6:41 PM EST
Astronomical Twilight 5:36 AM EST 7:12 PM EST
Moon 6:56 AM EST (2/10) 6:29 PM EST (2/10)
Length of Visible Light 11h 30m
Length of Day
10h 35m
New Moon, 0% of the Moon is Illuminated
Feb 10
New Moon
Feb 17
First Quarter
Feb 25
Full
Mar 4
Last Quarter
Mar 11
New

Hourly Weather History & Observations

Time (EST) Temp. Windchill Dew Point Humidity Pressure Visibility Wind Dir Wind Speed Gust Speed Precip Events Conditions
12:15 AM 23.0 °F - 21.2 °F 93% 30.41 in 10.0 mi Calm Calm - N/A   Clear
12:35 AM 21.2 °F - 21.2 °F 100% 30.40 in 10.0 mi Calm Calm - N/A   Clear
12:55 AM 21.2 °F - 19.4 °F 93% 30.41 in 10.0 mi Calm Calm - N/A   Clear
1:15 AM 21.2 °F - 19.4 °F 93% 30.40 in 10.0 mi Calm Calm - N/A   Clear
1:35 AM 21.2 °F - 19.4 °F 93% 30.41 in 10.0 mi Calm Calm - N/A   Clear
1:55 AM 19.4 °F - 19.4 °F 100% 30.42 in 10.0 mi Calm Calm - N/A   Clear
2:15 AM 19.4 °F - 17.6 °F 93% 30.42 in 10.0 mi Calm Calm - N/A   Clear
2:35 AM 19.4 °F - 17.6 °F 93% 30.41 in 10.0 mi Calm Calm - N/A   Clear
2:55 AM 19.4 °F - 17.6 °F 93% 30.41 in 10.0 mi Calm Calm - N/A   Clear
3:15 AM 17.6 °F - 15.8 °F 93% 30.42 in 10.0 mi Calm Calm - N/A   Clear
3:35 AM 17.6 °F - 15.8 °F 93% 30.43 in 10.0 mi Calm Calm - N/A   Clear
3:55 AM 17.6 °F - 17.6 °F 100% 30.43 in 10.0 mi Calm Calm - N/A   Clear
4:15 AM 17.6 °F - 15.8 °F 93% 30.43 in 10.0 mi Calm Calm - N/A   Clear
4:55 AM 17.6 °F - 15.8 °F 93% 30.43 in 10.0 mi Calm Calm - N/A   Clear
5:15 AM 17.6 °F - 15.8 °F 93% 30.43 in 10.0 mi Calm Calm - N/A   Clear
5:35 AM 17.6 °F - 15.8 °F 93% 30.44 in 10.0 mi Calm Calm - N/A   Clear
5:55 AM 15.8 °F - 15.8 °F 100% 30.44 in 10.0 mi Calm Calm - N/A   Clear
6:15 AM 17.6 °F - 15.8 °F 93% 30.45 in 10.0 mi Calm Calm - N/A   Clear
6:35 AM 15.8 °F - 14.0 °F 93% 30.46 in 10.0 mi Calm Calm - N/A   Clear
6:55 AM 15.8 °F 10.2 °F 14.0 °F 93% 30.47 in 10.0 mi SSE 3.5 mph - N/A   Clear
7:15 AM 15.8 °F - 15.8 °F 100% 30.47 in 10.0 mi Calm Calm - N/A   Clear
7:35 AM 17.6 °F - 17.6 °F 100% 30.48 in 10.0 mi Calm Calm - N/A   Clear
7:55 AM 21.2 °F - 19.4 °F 93% 30.49 in 10.0 mi Calm Calm - N/A   Clear
8:15 AM 24.8 °F - 23.0 °F 93% 30.49 in 10.0 mi Calm Calm - N/A   Clear
8:35 AM 24.8 °F - 23.0 °F 93% 30.49 in 10.0 mi Calm Calm - N/A   Clear
8:55 AM 26.6 °F - 23.0 °F 86% 30.49 in 10.0 mi Calm Calm - N/A   Clear
9:15 AM 28.4 °F - 26.6 °F 93% 30.49 in 10.0 mi Calm Calm - N/A   Clear
9:35 AM 33.8 °F - 24.8 °F 70% 30.49 in 10.0 mi Calm Calm - N/A   Clear
9:45 AM 33.8 °F - 24.8 °F 70% 30.49 in 10.0 mi Calm Calm - N/A   Clear
10:50 AM 35.6 °F 31.7 °F 19.4 °F 52% 30.48 in 10.0 mi SSE 4.6 mph - N/A   Clear
11:45 AM 37.4 °F 32.8 °F 15.8 °F 41% 30.45 in 10.0 mi South 5.8 mph - N/A   Clear
1:50 PM 44.6 °F 39.7 °F 15.8 °F 31% 30.38 in 10.0 mi SSE 9.2 mph - N/A   Clear
2:45 PM 44.6 °F 39.2 °F 15.8 °F 31% 30.35 in 10.0 mi South 10.4 mph - N/A   Clear
6:55 PM 39.2 °F 34.2 °F 24.8 °F 56% 30.32 in 10.0 mi SSE 6.9 mph - N/A   Clear
7:15 PM 39.2 °F 33.6 °F 24.8 °F 56% 30.32 in 10.0 mi SSE 8.1 mph - N/A   Clear
7:35 PM 39.2 °F 34.2 °F 23.0 °F 52% 30.31 in 10.0 mi SE 6.9 mph - N/A   Clear
7:55 PM 39.2 °F 35.0 °F 24.8 °F 56% 30.32 in 10.0 mi SSE 5.8 mph - N/A   Clear
8:15 PM 39.2 °F 35.0 °F 24.8 °F 56% 30.32 in 10.0 mi SSE 5.8 mph - N/A   Clear
8:35 PM 39.2 °F 33.6 °F 24.8 °F 56% 30.31 in 10.0 mi SSE 8.1 mph - N/A   Clear
8:55 PM 37.4 °F 32.8 °F 24.8 °F 60% 30.31 in 10.0 mi SSE 5.8 mph - N/A   Clear
9:15 PM 37.4 °F 31.4 °F 24.8 °F 60% 30.30 in 10.0 mi SSE 8.1 mph - N/A   Clear
9:35 PM 39.2 °F 31.6 °F 26.6 °F 61% 30.28 in 10.0 mi SSE 12.7 mph - N/A   Clear
9:55 PM 39.2 °F 33.6 °F 26.6 °F 61% 30.28 in 10.0 mi SSE 8.1 mph - N/A   Scattered Clouds
10:15 PM 39.2 °F 33.6 °F 26.6 °F 61% 30.27 in 10.0 mi SSE 8.1 mph - N/A   Partly Cloudy
10:35 PM 39.2 °F 33.6 °F 26.6 °F 61% 30.26 in 10.0 mi SSE 8.1 mph - N/A   Clear
10:55 PM 39.2 °F 33.0 °F 26.6 °F 61% 30.26 in 10.0 mi SSE 9.2 mph - N/A   Clear
11:15 PM 39.2 °F 34.2 °F 26.6 °F 61% 30.26 in 10.0 mi SSE 6.9 mph - N/A   Partly Cloudy
11:35 PM 39.2 °F 34.2 °F 26.6 °F 61% 30.24 in 10.0 mi SSE 6.9 mph - N/A   Mostly Cloudy
11:55 PM 39.2 °F 32.5 °F 26.6 °F 61% 30.23 in 10.0 mi South 10.4 mph - N/A   Overcast